ATLAS D DEB, 2337

Orbit data source: Space-Track

ATLAS D DEB, 2337 is space debris in LEO originally from a launch on Thu, 14 Jul 1966 UTC launched from the Air Force Western Test Range (AFWTR). Debris objects in space refer to the collection of defunct objects orbiting the Earth. Examples of debris include non-operational satellites, rocket bodies, and fragments generated from explosions, collisions, or faulty payload assembly.

Loading next visibility...
Identifier
2337, 1966-063E
Orbit
LEO
Last TLE update
13 hours ago
Origin
Manufacturer
Unknown
Mission
Spacecraft
Bus & Motor
Unknown
Mass
9 kg wet, 9 kg dry
Launch date (UTC)
1966-07-14 (59 years ago)
Launch vehicle
Unknown
Launch site
Air Force Western Test Range (AFWTR)
Object type
Payload
Rocket body
Debris
Shape & HBR
Trunc Cone, 0.7 m
Radar Cross Section
0.700 m², Medium (>0.1 m² and < 1m²)

Expand to show TLE details & history

TLE from 13 hours ago
0 ATLAS D DEB
1 02337U 66063E   25182.52382380  .00000350  00000-0  10976-3 0  9999
2 02337 144.2310 276.9773 0004808 128.8962 248.5277 13.72210826953889
Epoch: 2025-07-01T12:34Z
TLE epoch observation values (Epoch: 2025-07-01T12:34:18.376Z)
Latitude
10.06823°
Longitude
154.38972°
Altitude
991.258 km
Speed
7.358 km/s
True Right ascension
17h 31m 08s
True Declination
10° 00' 40"
Sunlit
Object was in full shadow at epoch
Visualization orbit readout
Latitude
-1.8578°
Longitude
-11.33387°
Altitude
988.704 km
Speed
7.36 km/s
Apparent Right ascension
04h 29m 28s
Apparent Declination
-24° 01' 17"
Sunlit
Object is in daylight
Visualization observer readout
Local Sidereal Time
13:17:01
Azimuth
276.632° WNW
Elevation
-46.796°
Doppler factor
1
Orbital elements
Apogee altitude
998.108 km
Perigee altitude
991.018 km
Semi-major axis
7,372.7 km
Eccentricity
0.00048
Inclination
144.231°
RAAN
276.9773°
Arg. of periapsis
128.8962°
True anomaly
Unknown
Mean anomaly
248.5277°
Eccentric anomaly
Unknown
Mean motion
3.42849 °/min
Orbital period
105 mins
BSTAR
0.00010976
Loading maneuver chart data...
Loading SW <> Apogee altitude chart data...
Loading historical data...
Loading historical data...
Loading historical data...
Loading historical data...
Loading historical data...
Loading historical data...
Loading historical data...

ATLAS D DEB Visibility forecast

Observer location: undefined°, undefined°

Span
Click to sort rows by Start time (UTC) header in descending order
Start Az.
Max El. time (UTC)
Max El. Az.
Max El.
End time (UTC)
End Az.
10 mins2025-07-02 02:43:04.628Z126.125° SE2025-07-02 02:48:04.628Z205.537° SW35.593°2025-07-02 02:53:04.628Z266.642° W
7 mins2025-07-02 04:24:04.628Z166.498° S2025-07-02 04:27:04.628Z203.938° SW21.436°2025-07-02 04:31:04.628Z252.448° W
9 mins2025-07-02 22:12:04.628Z103.269° ESE2025-07-02 22:16:04.628Z156.138° SSE26.808°2025-07-02 22:21:04.628Z216.39° SW
10 mins2025-07-02 23:51:04.628Z96.919° ESE2025-07-02 23:56:04.628Z187.313° SSW38.239°2025-07-03 00:01:04.628Z245.402° WSW
5 mins2025-07-03 01:31:04.628Z108.978° ESE2025-07-03 01:35:04.628Z191.862° SSW41.056°2025-07-03 01:36:04.628Z228.836° WSW
|